Temperature
16 16 17 17 17 17 17 17 17 17 17 17 17 17 17 17 16 16 17 16 16 16 16 16 16 16 16 16 16 16 16 16 16 16 16 15 15 15 15 15 15 15 15
16 16 17 17 17 17 17 17 17 17 17 17 17 16 16 16 16 16 16 16 16 16 16 16 16 16 16 16 16 16 16 16 16 15 15 15 15 15 15 15 15 15 15
16 16 16 16 16 16 16 16 16 16 16 16 16 16 16 16 16 16 16 16 16 16 16 16 16 16 16 16 16 16 16 15 15 15 15 15 15 15 15 15 15 15 15
15 16 16 16 16 16 16 16 16 16 16 16 16 16 16 16 16 16 16 16 16 16 16 16 16 16 16 16 16 16 15 15 15 15 14 14 14 15 15 15 15 15 15
15 15 16 16 16 16 16 16 16 16 16 16 16 16 16 16 16 16 16 16 16 16 16 16 16 15 15 15 16 15 15 15 15 15 15 14 14 14 15 15 15 15 15
15 15 15 15 15 15 15 15 15 15 16 16 16 16 16 16 16 15 15 16 16 16 16 16 15 15 15 15 15 15 15 15 15 14 14 14 14 14 14 15 15 15 14
14 14 15 15 15 15 15 15 15 15 15 15 15 15 15 15 15 15 15 15 15 15 15 15 15 15 15 15 15 15 15 15 15 14 14 14 14 14 14 14 14 14 14
14 14 14 14 14 15 15 15 15 15 15 15 15 15 15 15 15 15 15 15 15 15 15 15 15 15 15 15 15 15 15 15 15 14 14 14 14 14 14 14 14 14 14
14 14 14 14 14 14 14 14 14 14 14 14 14 14 14 14 14 14 14 15 15 15 15 15 15 15 15 15 15 15 15 15 15 14 14 14 14 14 14 14 14 14 14
14 14 14 14 14 14 14 14 14 14 14 14 14 14 14 14 14 14 14 14 14 14 14 14 15 15 15 15 15 15 14 14 14 14 14 14 14 14 14 14 14 14 14
13 13 14 14 14 14 14 13 13 13 13 13 14 14 13 13 13 13 13 13 13 14 14 14 14 14 14 14 14 14 14 14 14 14 14 14 14 14 14 14 14 14 14
13 13 13 13 14 14 13 13 13 13 13 13 13 13 13 13 13 13 13 13 13 13 13 13 13 14 14 14 14 14 14 14 14 14 14 14 14 14 14 14 14 14 14
13 13 13 13 13 13 13 13 13 13 13 13 13 13 13 13 13 13 13 13 13 13 13 13 13 13 13 13 13 13 14 14 14 14 14 14 14 14 14 14 14 14 14
12 13 13 13 13 13 13 13 13 12 12 12 12 12 12 12 12 12 12 12 12 12 12 12 12 13 13 13 13 13 13 13 13 13 13 13 13 13 14 14 14 14 14
12 12 12 13 13 13 13 12 12 12 12 12 12 12 12 12 12 12 12 12 12 12 12 12 12 12 12 12 12 12 13 13 13 13 13 13 13 13 13 13 13 14 14
12 12 12 12 12 12 12 12 12 12 12 11 11 11 11 11 11 11 11 11 11 11 11 11 11 11 12 12 12 12 12 12 12 13 13 13 13 13 13 13 13 13 13
12 12 12 12 12 12 12 11 11 11 11 11 11 11 11 11 11 11 11 11 11 11 11 11 11 11 11 11 12 12 12 12 12 12 12 12 12 12 12 12 13 13 13
11 11 11 11 11 11 11 11 11 11 11 11 11 11 11 11 10 10 10 10 10 10 10 11 11 11 11 11 11 11 11 11 12 12 12 12 12 12 12 12 12 12 12
11 11 11 11 11 11 11 11 11 10 10 10 10 10 10 10 10 10 10 10 10 10 10 10 10 10 10 10 11 11 11 11 11 11 11 11 11 11 11 11 11 12 12
11 11 11 11 11 11 10 10 10 10 10 10 10 10 10 10 10 9 9 9 9 9 9 9 9 9 9 9 10 10 10 10 10 10 10 11 11 11 11 11 11 11 11
10 11 11 11 11 10 10 10 10 10 10 9 9 9 9 9 9 9 9 9 9 9 8 9 9 9 9 9 9 10 10 10 10 10 10 10 10 10 10 10 10 10 10
10 10 10 10 10 10 10 10 10 9 9 9 9 9 9 9 9 8 8 8 8 8 8 8 8 8 8 8 7 8 8 9 9 9 9 9 9 9 9 10 10 10 10
10 10 10 10 10 10 10 10 9 9 9 9 9 9 8 8 8 8 8 8 8 8 7 7 7 7 7 7 7 6 6 7 7 8 8 8 8 9 9 9 9 9 9
10 10 10 10 10 10 9 9 9 9 8 8 8 8 8 8 8 8 8 7 7 7 7 7 7 6 6 6 6 6 5 5 6 6 7 7 8 8 8 8 8 8 8
9 10 10 9 9 9 9 9 9 8 8 8 8 8 8 7 7 7 7 7 7 7 7 6 6 6 6 6 5 5 5 5 5 5 5 6 6 7 7 7 7 7 7
9 9 9 9 9 9 9 8 8 8 8 8 7 7 7 7 7 7 7 6 6 6 6 6 6 5 5 5 5 4 4 4 4 3 3 4 5 5 6 6 6 6 6
Wind_Speed
6 10 10 9 9 8 8 8 8 8 7 7 7 7 6 5 5 5 5 3 3 3 2 2 2 3 3 3 3 4 4 4 4 5 6 6 6 6 6 5 6 7 9
7 11 11 10 9 8 8 8 7 7 7 6 6 6 5 5 4 4 4 4 3 2 1 1 2 2 2 2 2 2 2 2 2 2 3 4 5 5 5 6 6 6 8
8 11 11 9 9 8 8 7 7 7 6 6 6 5 5 5 4 4 3 3 3 3 1 1 1 1 1 1 1 1 1 1 1 2 2 3 4 4 4 4 5 6 6
9 11 10 9 8 8 8 8 7 6 6 6 6 5 5 5 4 4 4 4 3 3 3 2 1 0 1 1 1 2 3 3 4 5 4 4 5 6 5 3 3 3 4
9 11 11 10 9 8 8 7 7 6 6 6 5 5 5 5 4 4 4 4 4 4 3 3 2 2 2 2 3 4 5 5 6 6 5 2 3 7 6 4 3 3 3
8 11 11 10 8 8 8 8 7 7 6 6 6 5 5 5 5 5 4 4 4 4 3 3 3 3 4 4 5 5 6 6 7 6 6 4 3 7 6 5 4 4 3
7 9 9 9 8 8 7 7 7 7 7 6 6 6 5 5 5 5 5 4 4 4 4 4 4 4 5 6 6 7 8 8 7 6 5 4 4 7 6 5 5 5 5
7 8 8 8 8 7 7 7 7 7 7 6 6 6 5 5 4 4 4 4 4 4 5 5 5 6 6 6 8 9 9 9 8 7 6 6 6 8 7 6 6 6 6
8 8 7 6 7 7 7 7 7 6 6 6 6 6 6 5 4 4 4 4 5 5 6 6 6 7 7 8 8 10 10 11 10 8 8 5 7 9 8 7 8 8 7
7 6 6 7 6 5 5 6 5 5 5 5 5 6 6 5 4 3 3 4 5 6 6 7 7 8 8 9 10 11 12 11 11 9 7 6 8 9 9 9 9 9 9
7 6 6 6 7 6 5 5 4 4 5 5 5 6 5 5 5 5 4 5 5 6 7 7 8 9 10 10 11 12 12 10 10 8 7 8 9 10 10 10 11 11 11
6 6 5 5 6 7 5 5 5 5 5 5 6 7 6 6 6 6 6 6 6 6 7 8 9 10 9 8 9 11 9 10 9 7 8 10 11 11 11 12 12 12 13
6 6 5 5 6 6 6 5 5 6 6 6 7 8 8 7 7 6 5 5 6 6 6 7 7 7 7 6 6 7 8 7 7 7 8 10 11 12 12 12 13 13 13
6 5 5 4 5 6 6 5 5 6 6 6 7 8 8 5 5 5 4 5 6 6 6 6 6 7 8 7 6 5 5 5 6 6 8 11 11 12 13 13 13 13 13
6 5 4 4 5 5 5 5 5 5 6 6 7 9 9 6 4 5 5 6 7 7 6 5 5 6 6 6 6 6 5 6 7 7 7 10 12 13 13 14 14 14 14
6 5 4 5 5 5 4 3 4 5 6 7 8 9 9 8 6 5 5 6 7 8 8 7 6 6 5 5 6 6 6 7 6 7 6 7 10 12 13 14 14 14 14
5 4 4 4 5 5 5 5 5 6 6 6 7 10 10 10 8 7 4 4 7 9 9 7 7 6 6 6 6 7 6 6 6 6 6 4 6 9 11 12 13 14 14
4 4 4 4 4 5 4 4 4 6 7 6 8 9 10 10 10 7 4 5 9 9 7 5 5 6 6 6 6 7 6 5 6 5 4 3 3 4 6 10 11 12 13
3 4 4 4 4 3 3 2 3 4 5 6 7 8 9 9 10 8 5 6 9 7 5 6 6 6 6 7 7 7 6 5 5 4 2 2 1 1 2 5 8 9 10
4 3 4 4 3 3 2 1 2 3 3 5 6 8 9 9 10 8 5 6 7 4 5 5 6 6 5 6 8 8 6 5 4 3 2 2 2 2 2 2 3 5 7
4 3 3 3 2 2 2 2 2 2 2 3 4 7 8 9 9 7 5 5 5 4 5 6 5 6 6 6 5 6 5 4 2 2 2 2 3 3 3 3 3 2 4
4 3 3 3 2 2 2 1 0 0 0 1 2 4 6 7 8 7 6 4 4 4 5 6 6 5 4 5 4 4 4 4 4 4 2 3 4 4 4 4 4 4 3
4 3 3 2 2 1 1 0 0 0 1 1 1 2 3 5 6 6 7 5 5 4 4 5 5 5 4 4 4 2 3 3 5 4 4 4 5 4 5 4 5 5 5
5 4 3 3 2 1 1 0 0 1 1 1 1 1 1 3 4 5 6 5 4 3 4 5 5 4 4 4 4 3 2 3 3 5 5 4 6 5 6 6 5 5 5
5 5 4 3 3 2 1 1 1 2 1 1 1 1 1 1 2 4 4 5 4 3 4 4 5 4 3 3 3 4 4 4 3 3 5 6 6 4 5 5 3 4 5
4 4 4 4 4 3 3 3 3 3 2 2 2 2 2 1 1 2 3 4 4 3 3 3 4 4 4 4 4 3 3 3 3 3 4 6 6 5 6 3 3 3 5
Wind_Direction
97 98 93 85 78 74 73 72 71 69 64 59 54 51 49 51 49 46 40 44 54 62 73 70 72 75 77 73 71 78 74 70 70 71 70 70 75 76 72 70 70 82 94
102 101 94 88 82 76 73 71 68 65 62 57 50 45 43 43 39 39 37 33 34 41 54 65 70 81 80 87 94 100 97 95 96 95 95 88 88 84 78 66 63 83 96
100 98 93 86 82 75 71 70 68 63 57 52 45 41 36 32 27 23 22 24 23 16 11 34 70 81 86 96 134 155 181 202 229 240 227 180 142 123 103 84 81 84 91
96 98 94 86 82 75 71 67 66 60 53 47 41 37 29 22 13 15 17 11 6 8 12 355 314 203 175 178 210 216 226 244 259 258 246 216 167 146 137 124 118 107 98
88 94 94 86 80 76 71 66 60 55 48 43 38 31 22 16 14 12 10 9 3 356 360 358 321 270 241 233 241 238 243 253 262 255 255 238 144 148 151 151 147 138 126
88 88 95 89 82 77 73 67 60 51 44 39 33 25 17 12 9 8 8 5 357 351 346 332 318 282 255 247 249 247 249 256 261 248 247 234 169 157 161 166 177 180 171
86 85 93 95 88 82 77 70 61 53 46 40 34 25 15 7 3 1 0 354 340 331 325 322 307 297 272 256 252 251 251 259 251 247 244 231 188 174 180 186 195 202 203
79 81 86 89 91 87 84 74 64 53 44 40 34 26 14 3 355 351 350 347 328 317 312 304 300 293 285 268 259 254 251 252 257 248 241 228 195 184 195 204 213 215 219
69 71 70 74 76 77 85 80 69 60 47 38 33 22 7 356 349 348 347 346 337 317 305 298 292 288 280 271 264 258 254 250 255 254 250 224 196 195 208 215 221 226 228
69 65 59 54 54 53 67 76 69 68 51 36 30 16 358 349 341 336 350 347 335 328 310 296 288 284 277 270 263 259 256 254 249 248 244 231 203 207 217 221 226 230 233
64 57 53 43 38 34 36 56 55 66 53 40 25 13 357 347 353 349 350 344 334 325 316 301 289 282 274 266 260 257 255 250 244 234 233 227 217 218 224 227 230 234 236
65 57 51 40 33 28 27 30 27 36 36 31 20 6 352 354 355 355 347 334 320 314 313 309 299 286 276 265 260 257 251 247 245 235 231 225 222 225 228 231 233 236 238
72 60 53 38 35 29 16 18 18 23 21 20 15 1 357 5 3 359 353 345 332 324 318 315 305 297 287 272 260 252 249 251 252 240 236 228 225 230 234 235 236 238 240
73 68 61 45 39 30 23 11 21 21 18 17 15 8 6 4 0 355 351 349 345 338 334 332 319 313 310 305 294 280 267 262 262 246 239 230 225 232 238 241 241 241 242
78 66 62 57 44 33 27 15 25 19 15 15 17 15 14 7 357 356 351 354 350 345 341 331 325 322 319 316 306 300 292 277 268 257 245 230 224 228 237 242 244 245 246
80 77 69 61 45 35 34 26 28 17 16 22 20 16 15 10 1 353 352 357 357 348 343 337 331 322 315 314 309 303 293 288 278 275 261 237 226 229 236 243 246 247 248
81 86 80 77 55 40 32 21 29 23 23 28 23 18 15 9 3 358 356 355 350 344 342 340 337 332 323 320 312 306 299 293 292 284 279 259 236 232 234 242 246 249 252
88 88 73 63 56 45 33 19 28 31 26 26 28 21 13 12 8 4 2 356 351 348 350 341 341 335 329 326 319 308 302 293 288 288 290 284 268 255 244 244 248 254 256
101 95 90 75 60 45 29 25 52 47 36 29 28 23 14 13 8 7 6 1 352 350 347 345 346 339 332 329 318 304 299 296 288 290 298 315 309 290 263 258 252 257 260
111 103 97 84 63 43 20 19 53 51 43 38 33 22 15 12 8 7 5 358 356 350 351 351 343 338 331 325 314 308 300 296 300 301 299 333 354 340 320 301 267 264 268
129 123 108 91 66 50 37 23 34 31 27 27 28 22 16 12 8 8 2 354 355 351 348 350 342 338 339 334 323 315 301 293 320 336 350 356 2 2 2 358 346 320 293
148 145 125 111 91 69 67 32 52 31 4 41 27 18 15 14 10 8 4 354 351 347 354 353 349 341 339 353 338 323 328 327 350 338 357 14 5 360 353 353 354 353 343
160 156 142 132 122 115 109 76 358 345 311 9 360 355 11 15 13 9 360 357 351 355 352 347 349 349 336 335 350 351 342 325 327 321 358 14 4 359 354 353 348 349 346
171 156 151 155 160 164 156 164 243 259 273 281 296 311 348 19 16 9 359 356 349 348 351 347 351 337 337 333 333 342 318 309 313 316 322 349 353 349 349 344 350 351 352
163 159 167 175 187 187 186 199 238 265 273 303 323 321 338 354 14 10 359 355 348 348 346 344 343 345 342 333 327 323 317 319 315 293 303 323 330 328 333 329 340 352 355
160 165 176 188 205 199 200 210 219 239 258 284 300 313 319 317 337 6 356 348 341 341 335 332 332 336 336 329 324 327 323 316 320 308 296 310 311 311 310 308 335 355 7
Height
1532 1532 1532 1533 1534 1535 1536 1536 1537 1538 1538 1539 1539 1539 1539 1539 1539 1539 1539 1539 1539 1539 1539 1539 1539 1539 1539 1539 1539 1538 1538 1538 1538 1538 1538 1538 1539 1539 1539 1539 1539 1540 1540
1531 1531 1532 1533 1534 1535 1536 1536 1537 1538 1538 1539 1539 1539 1539 1539 1540 1540 1539 1539 1539 1539 1539 1539 1539 1539 1539 1539 1539 1539 1539 1539 1539 1539 1539 1539 1539 1539 1540 1540 1540 1540 1540
1530 1531 1532 1533 1534 1535 1536 1536 1537 1537 1538 1538 1539 1539 1539 1539 1539 1539 1539 1539 1539 1539 1539 1539 1539 1539 1539 1539 1539 1539 1539 1539 1539 1539 1539 1539 1540 1540 1540 1540 1540 1540 1540
1530 1530 1531 1533 1533 1534 1535 1536 1536 1537 1537 1538 1538 1538 1538 1539 1539 1539 1539 1539 1539 1539 1539 1539 1539 1539 1539 1539 1539 1539 1539 1539 1539 1539 1540 1540 1540 1540 1540 1540 1540 1540 1540
1530 1530 1531 1532 1533 1534 1534 1535 1536 1536 1536 1537 1537 1537 1538 1538 1538 1538 1538 1538 1538 1538 1538 1538 1538 1538 1538 1538 1538 1538 1538 1539 1539 1539 1539 1540 1540 1540 1540 1540 1540 1540 1540
1530 1530 1531 1532 1533 1533 1534 1535 1535 1535 1536 1536 1536 1536 1537 1537 1537 1537 1537 1537 1537 1537 1537 1537 1537 1537 1537 1537 1537 1537 1538 1538 1538 1538 1538 1539 1539 1539 1539 1539 1539 1539 1540
1530 1530 1531 1532 1533 1533 1534 1534 1534 1535 1535 1535 1535 1536 1536 1536 1536 1535 1535 1535 1535 1535 1535 1535 1536 1536 1536 1536 1536 1536 1536 1536 1537 1537 1537 1538 1538 1538 1538 1538 1538 1538 1539
1530 1530 1531 1532 1532 1533 1533 1534 1534 1534 1534 1535 1535 1534 1534 1534 1534 1534 1534 1534 1534 1534 1534 1534 1534 1534 1534 1534 1534 1534 1535 1535 1535 1535 1536 1536 1536 1536 1536 1536 1537 1537 1537
1530 1530 1531 1532 1532 1533 1533 1533 1533 1534 1534 1534 1534 1534 1533 1533 1533 1533 1532 1532 1532 1532 1532 1531 1532 1532 1532 1532 1532 1532 1533 1533 1533 1533 1534 1534 1534 1535 1535 1535 1535 1535 1535
1529 1530 1531 1531 1532 1532 1532 1533 1533 1533 1533 1533 1533 1532 1532 1532 1532 1531 1531 1530 1530 1530 1529 1529 1529 1529 1529 1529 1530 1530 1530 1531 1531 1531 1531 1532 1532 1532 1533 1533 1533 1533 1533
1529 1529 1530 1531 1531 1531 1532 1532 1532 1532 1532 1532 1532 1531 1531 1531 1530 1530 1529 1529 1528 1528 1527 1527 1527 1527 1527 1527 1527 1527 1527 1528 1528 1528 1529 1529 1530 1530 1530 1530 1530 1531 1531
1528 1529 1529 1530 1530 1530 1531 1531 1531 1531 1531 1530 1530 1530 1530 1529 1529 1528 1528 1527 1526 1526 1525 1525 1524 1524 1524 1524 1524 1524 1524 1525 1525 1525 1526 1526 1527 1527 1527 1527 1528 1528 1528
1528 1528 1529 1529 1529 1530 1530 1530 1530 1530 1529 1529 1529 1529 1528 1528 1527 1526 1526 1525 1524 1524 1523 1523 1522 1522 1521 1521 1521 1521 1521 1521 1522 1522 1522 1523 1523 1523 1524 1524 1524 1525 1525
1527 1528 1528 1528 1529 1529 1529 1528 1528 1528 1528 1528 1528 1527 1527 1526 1525 1525 1524 1523 1523 1522 1521 1520 1520 1519 1519 1518 1518 1518 1518 1518 1518 1518 1518 1519 1519 1520 1520 1520 1520 1521 1521
1526 1526 1527 1527 1528 1528 1528 1528 1527 1527 1527 1527 1526 1526 1525 1524 1523 1523 1522 1521 1521 1520 1519 1518 1517 1517 1516 1516 1515 1515 1515 1515 1515 1515 1515 1515 1515 1515 1516 1516 1516 1517 1517
1525 1526 1526 1527 1527 1527 1527 1526 1526 1526 1526 1525 1525 1524 1524 1523 1522 1521 1520 1519 1518 1518 1517 1516 1515 1514 1513 1513 1512 1512 1511 1511 1511 1511 1511 1511 1511 1511 1511 1512 1512 1512 1513
1524 1525 1525 1525 1525 1526 1525 1525 1525 1525 1525 1524 1524 1523 1522 1522 1521 1519 1518 1517 1516 1515 1514 1513 1512 1511 1510 1509 1509 1508 1507 1507 1507 1507 1507 1507 1506 1506 1506 1507 1508 1508 1508
1524 1523 1524 1524 1524 1524 1524 1524 1524 1524 1523 1523 1523 1522 1521 1520 1519 1518 1516 1515 1514 1513 1512 1511 1510 1508 1507 1506 1505 1504 1504 1503 1503 1503 1502 1502 1502 1501 1501 1502 1502 1503 1504
1523 1523 1523 1523 1523 1523 1523 1524 1523 1523 1523 1522 1521 1521 1520 1519 1517 1516 1515 1514 1512 1511 1510 1508 1507 1506 1504 1503 1502 1501 1500 1499 1499 1499 1498 1498 1498 1498 1497 1497 1498 1498 1498
1521 1522 1522 1522 1522 1522 1523 1523 1523 1522 1522 1521 1520 1519 1518 1517 1516 1515 1513 1512 1510 1509 1507 1506 1504 1503 1501 1500 1498 1497 1496 1495 1495 1495 1495 1494 1494 1494 1493 1493 1493 1493 1493
1520 1520 1521 1521 1521 1522 1522 1522 1521 1521 1520 1520 1519 1518 1517 1516 1514 1513 1512 1510 1509 1507 1506 1504 1502 1501 1499 1497 1495 1493 1492 1492 1492 1491 1491 1491 1490 1490 1490 1489 1489 1488 1488
1519 1519 1519 1520 1521 1521 1521 1521 1520 1520 1519 1518 1517 1516 1515 1514 1513 1511 1510 1509 1507 1506 1504 1502 1500 1499 1497 1496 1494 1492 1490 1490 1489 1489 1489 1488 1487 1487 1486 1485 1485 1484 1484
1517 1518 1518 1519 1519 1519 1519 1519 1519 1518 1517 1517 1516 1515 1513 1512 1511 1510 1508 1507 1505 1504 1502 1500 1499 1497 1496 1495 1494 1494 1492 1489 1487 1487 1486 1485 1484 1483 1482 1481 1481 1480 1479
1516 1516 1517 1518 1518 1518 1518 1517 1517 1516 1515 1514 1513 1512 1511 1510 1509 1508 1507 1505 1504 1502 1500 1499 1497 1496 1494 1493 1492 1492 1492 1490 1488 1484 1484 1482 1481 1480 1479 1478 1477 1476 1475
1514 1514 1515 1515 1516 1516 1515 1515 1514 1514 1513 1512 1511 1510 1510 1508 1507 1506 1504 1503 1502 1500 1499 1497 1496 1494 1493 1491 1490 1489 1488 1488 1487 1485 1481 1479 1478 1477 1476 1475 1474 1472 1471
1512 1513 1513 1513 1513 1513 1513 1512 1512 1511 1510 1510 1509 1508 1507 1506 1505 1504 1502 1501 1499 1498 1496 1495 1493 1492 1490 1489 1488 1487 1486 1485 1484 1482 1480 1477 1475 1474 1473 1472 1470 1469 1467